Location: *
(28.3744°N, 81.5492°W)
Time: 03:18:25
(UTC+00:00)

USA 229 - Pass Details

Date: 15 June 2025
Orbit: 856 x 1355 km, 63.4° (Epoch: 26 June)

Event Time Altitude Azimuth Distance (km) Brightness Sun altitude
Rises 07:27:03 0° 335° (NNW) 4,105 7.2 -30.7°
Reaches altitude 10° 07:29:45 10° 339° (NNW) 3,200 6.6 -30.4°
Maximum altitude 07:37:34 66° 60° (ENE) 1,423 4.4 -29.5°
Drops below altitude 10° 07:45:52 10° 142° (SE) 3,395 6.2 -28.4°
Sets 07:48:48 0° 145° (SE) 4,368 6.7 -28.0°
